Amsterdam, Netherlands

12:27 PM CET on February 24, 2017 (GMT +0100)
Schiphol

Weather History for EHAM - March, 2014

Change the Weather History Date:

Saturday, March 22, 2014

  Actual Average Record
Temperature  
Mean Temperature 45 °F -  
Max Temperature 51 °F 52 °F 64 °F (2005)
Min Temperature 39 °F 39 °F 24 °F (2006)
Degree Days  
Heating Degree Days 20    
Moisture  
Dew Point 37 °F    
Average Humidity 74    
Maximum Humidity 87    
Minimum Humidity 50    
Precipitation  
Precipitation 0.00 in - - ()
Sea Level Pressure  
Sea Level Pressure 29.55 in    
Wind  
Wind Speed 14 mph ()    
Max Wind Speed 21 mph    
Max Gust Speed -    
Visibility 10.3 miles    
Events Rain    
Averages and records for this station are not official NWS values.
T = Trace of Precipitation, MM = Missing Value Source: Averaged Metar Reports

Daily Weather History Graph

Daily Weather History Graph

Search for Another Location

Airport or City:

Trip Planner

Search our weather history database for the weather conditions in past years. The results will help you decide how hot, cold, wet, or windy it might be!

Date:

Astronomy

Mar. 22, 2014 Rise Set
Actual Time 6:39 AM CET 6:57 PM CET
Civil Twilight 6:05 AM CET 7:31 PM CET
Nautical Twilight 5:25 AM CET 8:11 PM CET
Astronomical Twilight 4:43 AM CET 8:54 PM CET
Moon 12:36 AM CET (3/22) 9:31 AM CET (3/22)
Length of Visible Light 13h 26m
Length of Day
12h 18m
Waning Gibbous, 68% of the Moon is Illuminated
Mar 22
Waning Gibbous
Mar 24
Last Quarter
Mar 30
New
Apr 7
First Quarter
Apr 15
Full

Hourly Weather History & Observations

Time (CET) Temp. Windchill Dew Point Humidity Pressure Visibility Wind Dir Wind Speed Gust Speed Precip Events Conditions
12:00 AM 41 °F - 36 °F 78% 29.70 in 16 mi South 11.2 mph - -  
12:25 AM 41.0 °F 34.3 °F 35.6 °F 81% 29.68 in - South 11.5 mph - N/A   Clear
12:55 AM 41.0 °F 33.5 °F 35.6 °F 81% 29.68 in - South 13.8 mph - N/A   Clear
1:00 AM 41 °F - 36 °F 75% 29.68 in 19 mi South 13.4 mph - -   Partly Cloudy
1:25 AM 41.0 °F 33.9 °F 35.6 °F 81% 29.65 in - South 12.7 mph - N/A   Clear
1:55 AM 41.0 °F 33.5 °F 35.6 °F 81% 29.65 in - South 13.8 mph - N/A   Clear
2:00 AM 41 °F - 35 °F 73% 29.65 in 19 mi South 13.4 mph - -   Mostly Cloudy
2:25 AM 41.0 °F 33.9 °F 35.6 °F 81% 29.62 in - South 12.7 mph - N/A   Clear
2:55 AM 41.0 °F 34.7 °F 35.6 °F 81% 29.62 in - SSE 10.4 mph - N/A   Clear
3:00 AM 40 °F - 35 °F 74% 29.62 in 19 mi SSE 11.2 mph - -   Partly Cloudy
3:25 AM 41.0 °F 33.9 °F 35.6 °F 81% 29.59 in - SSE 12.7 mph - N/A   Clear
3:55 AM 41.0 °F 33.1 °F 33.8 °F 76% 29.56 in - SSE 15.0 mph - N/A   Clear
4:00 AM 41 °F - 34 °F 69% 29.59 in 22 mi SSE 15.7 mph - -  
4:25 AM 41.0 °F 33.5 °F 33.8 °F 76% 29.56 in - SSE 13.8 mph - N/A   Clear
4:55 AM 41.0 °F 33.5 °F 35.6 °F 81% 29.53 in - SSE 13.8 mph - N/A   Clear
5:00 AM 41 °F - 35 °F 72% 29.56 in 19 mi SSE 13.4 mph - -   Partly Cloudy
5:25 AM 41.0 °F 33.1 °F 35.6 °F 81% 29.53 in - South 15.0 mph - N/A   Clear
5:55 AM 41.0 °F 32.8 °F 35.6 °F 81% 29.50 in - South 16.1 mph - N/A   Clear
6:00 AM 42 °F - 36 °F 73% 29.53 in 19 mi South 15.7 mph - -   Partly Cloudy
6:25 AM 41.0 °F 32.8 °F 37.4 °F 87% 29.50 in - South 16.1 mph - N/A   Clear
6:55 AM 41.0 °F 32.8 °F 37.4 °F 87% 29.50 in - South 16.1 mph - N/A   Clear
7:00 AM 41 °F - 36 °F 78% 29.52 in 14 mi South 15.7 mph - -   Partly Cloudy
7:25 AM 42.8 °F 35.4 °F 37.4 °F 81% 29.50 in - South 15.0 mph - N/A   Clear
7:55 AM 42.8 °F 35.4 °F 37.4 °F 81% 29.50 in 6.2 mi South 15.0 mph - N/A   Scattered Clouds
8:00 AM 44 °F - 38 °F 71% 29.52 in 19 mi South 15.7 mph - -   Overcast
8:25 AM 44.6 °F 37.4 °F 39.2 °F 81% 29.50 in 6.2 mi South 16.1 mph - N/A Rain Light Rain Showers
8:55 AM 44.6 °F 37.4 °F 39.2 °F 81% 29.50 in 6.2 mi SSW 16.1 mph - N/A   Mostly Cloudy
9:00 AM 45 °F - 39 °F 72% 29.53 in 19 mi SSW 15.7 mph - - Rain Drizzle
9:25 AM 46.4 °F 39.5 °F 39.2 °F 76% 29.50 in 6.2 mi SSW 17.3 mph - N/A   Scattered Clouds
9:55 AM 46.4 °F 39.0 °F 41.0 °F 81% 29.53 in 6.2 mi SSW 19.6 mph - N/A Rain Light Rain Showers
10:00 AM 46 °F - 40 °F 74% 29.54 in 9 mi SSW 20.1 mph - - Rain Drizzle
10:25 AM 46.4 °F 38.7 °F 41.0 °F 81% 29.50 in 6.2 mi SSW 20.7 mph - N/A Rain Light Rain Showers
10:55 AM 44.6 °F 37.2 °F 41.0 °F 87% 29.53 in 6.2 mi SW 17.3 mph - N/A   Scattered Clouds
11:00 AM 45 °F - 41 °F 82% 29.54 in 25 mi SW 15.7 mph - - Rain Light Drizzle
11:25 AM 46.4 °F 40.1 °F 41.0 °F 81% 29.53 in 6.2 mi SSW 15.0 mph - N/A   Scattered Clouds
11:55 AM 46.4 °F 39.2 °F 41.0 °F 81% 29.53 in 6.2 mi SSW 18.4 mph - N/A   Mostly Cloudy
12:00 PM 48 °F - 41 °F 70% 29.54 in 19 mi SSW 17.9 mph - - Rain Drizzle
12:25 PM 48.2 °F - 41.0 °F 76% 29.53 in 6.2 mi SW 18.4 mph - N/A   Mostly Cloudy
12:55 PM 48.2 °F - 37.4 °F 66% 29.53 in 6.2 mi WSW 18.4 mph - N/A Rain Light Rain Showers
1:00 PM 47 °F - 38 °F 63%  in 16 mi WSW 17.9 mph - - Rain Light Rain Showers
1:25 PM 48.2 °F - 35.6 °F 62% 29.53 in 6.2 mi WSW 19.6 mph - N/A   Scattered Clouds
1:55 PM 50.0 °F - 37.4 °F 62% 29.50 in 6.2 mi WSW 19.6 mph - N/A   Partly Cloudy
2:00 PM 49 °F - 36 °F 50%  in 17 mi WSW 20.1 mph - - Rain Rain
2:25 PM 50.0 °F - 35.6 °F 58% 29.50 in 6.2 mi SW 19.6 mph - N/A   Partly Cloudy
2:55 PM 48.2 °F - 35.6 °F 62% 29.50 in 6.2 mi WSW 19.6 mph - N/A   Partly Cloudy
3:00 PM 48 °F - 36 °F 53% 29.54 in 22 mi WSW 20.1 mph - -   Scattered Clouds
3:25 PM 48.2 °F - 35.6 °F 62% 29.53 in 6.2 mi WSW 19.6 mph - N/A   Partly Cloudy
3:55 PM 48.2 °F - 35.6 °F 62% 29.53 in 6.2 mi WSW 16.1 mph - N/A   Partly Cloudy
4:00 PM 48 °F - 36 °F 53% 29.54 in 19 mi SW 15.7 mph - -   Scattered Clouds
4:25 PM 48.2 °F - 35.6 °F 62% 29.53 in - SW 18.4 mph - N/A   Clear
4:55 PM 48.2 °F - 35.6 °F 62% 29.53 in 6.2 mi SW 18.4 mph - N/A   Partly Cloudy
5:00 PM 47 °F - 35 °F 53% 29.54 in 25 mi SW 17.9 mph - -   Scattered Clouds
5:25 PM 46.4 °F 40.4 °F 37.4 °F 71% 29.53 in 6.2 mi SSW 13.8 mph - N/A   Partly Cloudy
5:55 PM 46.4 °F 39.2 °F 33.8 °F 62% 29.53 in 6.2 mi WSW 18.4 mph - N/A   Partly Cloudy
6:00 PM 46 °F - 34 °F 52% 29.55 in 25 mi WSW 20.1 mph - -   Scattered Clouds
6:25 PM 44.6 °F 36.9 °F 35.6 °F 71% 29.53 in 6.2 mi WSW 18.4 mph - N/A   Partly Cloudy
6:55 PM 44.6 °F 38.4 °F 35.6 °F 71% 29.53 in 6.2 mi SW 12.7 mph - N/A   Partly Cloudy
7:00 PM 44 °F - 36 °F 64% 29.56 in 25 mi SW 13.4 mph - -   Partly Cloudy
7:25 PM 42.8 °F 36.6 °F 35.6 °F 76% 29.53 in 6.2 mi SW 11.5 mph - N/A   Partly Cloudy
7:55 PM 42.8 °F 36.2 °F 35.6 °F 76% 29.56 in 6.2 mi SW 12.7 mph - N/A   Partly Cloudy
8:00 PM 43 °F - 36 °F 69% 29.57 in 19 mi SW 13.4 mph - -   Partly Cloudy
8:25 PM 41.0 °F 34.7 °F 35.6 °F 81% 29.56 in 6.2 mi SW 10.4 mph - N/A   Partly Cloudy
8:55 PM 42.8 °F 36.2 °F 37.4 °F 81% 29.56 in 6.2 mi SSW 12.7 mph - N/A   Partly Cloudy
9:00 PM 41 °F - 36 °F 78% 29.57 in 19 mi SSW 11.2 mph - -   Partly Cloudy
9:25 PM 41.0 °F 34.3 °F 37.4 °F 87% 29.56 in 6.2 mi SSW 11.5 mph - N/A   Partly Cloudy
9:55 PM 41.0 °F 34.7 °F 37.4 °F 87% 29.56 in 6.2 mi SSW 10.4 mph - N/A   Partly Cloudy
10:00 PM 41 °F - 37 °F 80% 29.57 in 17 mi South 11.2 mph - -   Scattered Clouds
10:25 PM 42.8 °F 36.2 °F 37.4 °F 81% 29.56 in 6.2 mi SSW 12.7 mph - N/A   Partly Cloudy
10:55 PM 41.0 °F 34.3 °F 37.4 °F 87% 29.56 in 6.2 mi SSW 11.5 mph - N/A   Partly Cloudy
11:00 PM 41 °F - 37 °F 80% 29.57 in 19 mi SSW 13.4 mph - -   Scattered Clouds
11:25 PM 41.0 °F 33.9 °F 37.4 °F 87% 29.56 in 6.2 mi SSW 12.7 mph - N/A   Partly Cloudy
11:55 PM 41.0 °F 33.5 °F 35.6 °F 81% 29.56 in 6.2 mi SSW 13.8 mph - N/A   Partly Cloudy